ASGARDIA 1 (43049 NORAD) Tracking and Keplerian Element Data

This shows tracking and keplerian element data for the satellite.

Feedback or suggestion? Click here.




ElementValue
Catalog43049
NameASGARDIA 1
Epoch Orbit5257
Epoch Day317.47507587
Epoch Year2018
RAAN33.407
Inclination51.6404
Eccentricity0.0002956
Argument of Perigee104.9895
Mean Anonmoly255.1417
Mean Motion15.3991562
Decay Rate3.041E-05
L11 43049U 17071N 18317.47507587 .00003041 00000-0 85141-4 0 9990
L22 43049 51.6404 33.4070 0002956 104.9895 255.1417 15.39915620 52572

Live tracking and technical data element details for ASGARDIA 1 (NORAD 43049). ASGARDIA 1 can be tracked NOW for your location showing map with azimuth and elevation plus other details from your city location.

Track the satellite on the map from your city or location and see movement details for azimuth, elevation, latitude, longitude, range, height, and movement on the map or in text.







IsCatalogInMostPopularTable: catalog: 43049, numindb: 152
Update: records affected: 1



GetName: 43049 ASGARDIA 1

Hit Count: updated at: Wed, 14 Nov 2018 15:12:09 GMT